Weather History for Wheeler AAF, HI

Change the Weather History Date:

Saturday, November 3, 2012

  Actual Average Record
Temperature  
Mean Temperature 72 °F -  
Max Temperature 81 °F 78 °F 84 °F (1999)
Min Temperature 63 °F 66 °F 62 °F (1999)
Cooling Degree Days 7    
Growing Degree Days 22 (Base 50)    
Moisture  
Dew Point 63 °F    
Average Humidity 76    
Maximum Humidity 93    
Minimum Humidity 50    
Precipitation  
Precipitation 0.00 in - - ()
Sea Level Pressure  
Sea Level Pressure 29.94 in    
Wind  
Wind Speed 2 mph (SSE)    
Max Wind Speed 10 mph    
Max Gust Speed 20 mph    
Visibility 10 miles    
Events      
Averages and records for this station are not official NWS values.
T = Trace of Precipitation, MM = Missing Value Source: NWS Daily Summary

Daily Weather History Graph

Daily Weather History Graph

Search for Another Location

Airport:

Trip Planner

Search our weather history database for the weather conditions in past years. The results will help you decide how hot, cold, wet, or windy it might be!

Date:

Astronomy

Nov. 03, 2012 Rise Set
Actual Time 6:36 AM HST 5:54 PM HST
Civil Twilight 6:13 AM HST 6:17 PM HST
Nautical Twilight 5:47 AM HST 6:43 PM HST
Astronomical Twilight 5:20 AM HST 7:10 PM HST
Moon 9:55 PM HST (11/3) 10:37 AM HST (11/3)
Length of Visible Light 12h 03m
Length of Day
11h 17m
Waning Gibbous, 78% of the Moon is Illuminated
Nov 3
Waning Gibbous
Nov 6
Last Quarter
Nov 13
New
Nov 20
First Quarter
Nov 28
Full

Hourly Weather History & Observations

Time (HST) Temp. Heat Index Dew Point Humidity Pressure Visibility Wind Dir Wind Speed Gust Speed Precip Events Conditions
12:55 AM 64.8 °F - 61.3 °F 89% 29.94 in 10.0 mi Calm Calm - N/A   Partly Cloudy
1:55 AM 66.9 °F - 63.0 °F 87% 29.93 in 10.0 mi Calm Calm - N/A   Partly Cloudy
2:55 AM 67.3 °F - 63.3 °F 87% 29.91 in 10.0 mi Calm Calm - N/A   Clear
3:55 AM 64.6 °F - 62.6 °F 93% 29.92 in 10.0 mi Calm Calm - N/A   Clear
4:55 AM 63.7 °F - 61.3 °F 92% 29.91 in 10.0 mi Calm Calm - N/A   Partly Cloudy
5:55 AM 64.6 °F - 62.4 °F 93% 29.93 in 10.0 mi Calm Calm - N/A   Mostly Cloudy
6:55 AM 65.5 °F - 63.1 °F 92% 29.94 in 10.0 mi Calm Calm - N/A   Clear
7:55 AM 69.4 °F - 65.5 °F 87% 29.96 in 10.0 mi Calm Calm - N/A   Clear
8:55 AM 75.2 °F - 64.4 °F 69% 29.97 in 10.0 mi Variable 4.6 mph - N/A   Clear
9:55 AM 78.4 °F - 58.6 °F 50% 29.97 in 10.0 mi ESE 6.9 mph - N/A   Clear
10:55 AM 80.2 °F 81.0 °F 59.9 °F 50% 29.96 in 10.0 mi SE 10.4 mph - N/A   Partly Cloudy
11:55 AM 81.3 °F 82.1 °F 60.8 °F 50% 29.94 in 10.0 mi SSW 5.8 mph - N/A   Mostly Cloudy
12:55 PM 81.0 °F 81.8 °F 61.2 °F 51% 29.92 in 10.0 mi SE 8.1 mph 19.6 mph N/A   Overcast
1:55 PM 77.0 °F - 64.9 °F 66% 29.92 in 10.0 mi Variable 5.8 mph - N/A   Overcast
2:55 PM 78.3 °F - 64.2 °F 62% 29.90 in 10.0 mi Variable 4.6 mph - N/A   Clear
3:55 PM 77.4 °F - 64.6 °F 65% 29.90 in 10.0 mi South 6.9 mph - N/A   Mostly Cloudy
4:55 PM 76.6 °F - 63.5 °F 64% 29.91 in 10.0 mi Variable 4.6 mph - N/A   Overcast
5:55 PM 75.2 °F - 63.3 °F 66% 29.93 in 10.0 mi SSE 3.5 mph - N/A   Mostly Cloudy
6:55 PM 73.8 °F - 64.4 °F 72% 29.95 in 10.0 mi Variable 3.5 mph - N/A   Scattered Clouds
7:33 PM 71.6 °F - 64.4 °F 78% 29.96 in 10.0 mi Calm Calm - N/A   Overcast
7:47 PM 71.6 °F - 64.4 °F 78% 29.97 in 10.0 mi Calm Calm - N/A   Mostly Cloudy
7:55 PM 72.0 °F - 64.2 °F 77% 29.97 in 10.0 mi Calm Calm - N/A   Mostly Cloudy
8:55 PM 70.0 °F - 63.9 °F 81% 29.98 in 10.0 mi Calm Calm - N/A   Partly Cloudy
9:55 PM 66.2 °F - 62.1 °F 86% 29.97 in 10.0 mi Calm Calm - N/A   Clear
10:55 PM 66.2 °F - 62.2 °F 87% 29.96 in 10.0 mi Calm Calm - N/A   Scattered Clouds
11:01 PM 66.2 °F - 60.8 °F 83% 29.96 in 10.0 mi Calm Calm - N/A   Mostly Cloudy
11:39 PM 66.2 °F - 62.6 °F 88% 29.96 in 10.0 mi Calm Calm - N/A   Scattered Clouds
11:55 PM 64.9 °F - 61.7 °F 89% 29.96 in 10.0 mi Calm Calm - N/A   Partly Cloudy